Airfield :
LOGIN :

Register | Disclaimer

   EN    FR    IT 

 










Legend :    VFR   Marginal VFR   IFR   Intensive IFR   Very Intensive IFR
Visi :
Ceiling :
>= 8 km
>= 3000ft
5 to 8 km
1000 to 3000 ft
1500m to 5 km
500 to 1000 ft
800 to 1500m
200 to 500 ft
< 800m
< 200 ft
Symbols :   Thunderstorms  Fog  Heavy snow  Heavy precipitations  Wind > 20 kt
SIGMETs :     Misc.  Thunderstorms  Icing  Turbulence  Mountain Waves  Volcanic Ashes






- Airport Elevation : 396 ft


LFOZ - Orléans St Denis

CURRENT METAR :
  • 310430Z AUTO 09003KT 5000 BR NSC 05/05 Q1022

EXPIRED METARs :
  • 310400Z AUTO 10002KT 5000 BR NSC 06/06 Q1022
  • 310330Z AUTO 10001KT 4000 0900 R23/P2000 BCFG FEW004 05/05 Q1022
  • 310300Z AUTO 00000KT 1700 1100 R23/P2000 BR NSC 06/06 Q1023
  • 310230Z AUTO 05002KT 1400 1000 R23/1700U BR NSC 07/06 Q1023
  • 310200Z AUTO VRB01KT 5000 1300 R23/P2000 BR NSC 08/07 Q1023

TAF N/A



MET'MAP, your aeronautical weather chart ! - Copyright ORBIFLY December 2007 - Disclaimer

ORBIFLY MET'MAP TEAM :

Programming & Development : Alexandra Zaïnal
Concept & original design : Baudouin d'Aumeries
Assistance for programming : Marc-Olivier Méhu
Technical & hardware support : Manuel Goepfert

Contact : metmap@orbifly.com




SOURCES & CREDITS :

   NOAA